RH
16 12 11 12 17 12 20 36 31 27 24 28 51 75 99 91 80 72 67 70 65 63 56 58 91 94 80 94 96 94 89 89 90 88 79 77 7 8 6 8 10 10 9 8 8 7 7 5 4
19 12 12 11 16 19 36 30 26 28 14 15 39 67 87 96 80 82 73 66 72 62 56 49 60 91 88 96 97 97 90 95 98 92 85 18 7 8 7 9 10 10 9 8 7 8 8 8 7
15 14 15 12 18 40 69 60 54 24 30 52 60 52 66 100 99 94 76 60 43 63 73 72 87 91 89 95 99 95 92 96 99 99 99 62 10 10 12 10 8 8 8 8 7 7 10 18 23
17 25 17 32 48 95 82 53 47 53 74 59 70 70 62 62 55 59 64 54 50 47 70 70 71 74 77 97 100 97 97 95 99 97 80 82 11 7 12 8 7 7 7 7 7 8 11 23 25
27 39 31 50 79 93 72 49 45 41 46 50 66 82 74 58 55 50 58 57 45 37 53 98 98 94 84 97 97 97 97 99 97 91 72 35 33 9 8 8 6 6 6 7 7 11 13 23 32
50 40 50 71 90 72 68 72 84 96 78 55 57 48 43 40 49 52 61 78 62 72 93 96 96 96 98 100 98 96 96 99 96 80 42 14 7 11 11 7 6 6 7 7 11 14 21 35 43
74 54 78 79 91 81 74 74 81 97 73 74 54 35 32 30 43 56 61 74 97 91 98 96 96 96 91 99 96 97 95 83 44 16 17 14 21 9 7 6 7 6 10 19 22 22 32 41 50
86 71 70 75 90 96 51 73 70 91 84 96 90 62 40 47 54 62 57 85 79 94 96 94 97 99 97 97 97 97 89 89 81 59 27 14 14 26 11 11 14 11 24 32 47 52 60 63 57
100 86 85 85 88 92 79 75 79 94 79 75 74 67 68 62 63 78 96 77 96 96 95 96 96 96 96 96 95 96 94 70 36 36 47 33 24 20 39 21 32 48 57 63 55 54 44 57 48
100 99 96 96 95 91 73 72 67 66 57 85 82 75 57 57 45 88 88 92 90 88 96 96 96 97 95 95 95 83 68 54 48 36 22 18 17 19 25 37 64 58 51 42 47 50 43 56 64
88 97 99 97 79 76 70 73 57 43 40 57 50 66 61 60 66 60 97 97 90 96 97 96 96 96 89 51 16 9 10 13 14 20 24 20 33 62 60 58 52 42 29 31 35 40 25 31 44
59 72 100 97 66 73 64 67 52 51 60 57 76 67 76 96 93 87 98 99 100 97 93 95 82 76 41 9 10 11 12 18 27 39 43 67 59 57 54 53 55 51 28 16 14 16 16 16 16
66 77 82 87 71 70 61 58 56 72 74 79 86 80 95 95 97 95 96 96 96 94 89 58 24 16 12 14 18 28 33 45 63 66 65 61 61 68 60 56 64 49 17 16 17 16 16 17 16
58 100 65 74 58 64 58 56 70 63 98 94 92 88 96 92 67 78 87 53 52 55 43 50 56 33 27 26 39 38 47 63 72 77 78 54 59 59 37 38 38 19 17 18 17 17 20 21 22
96 77 75 94 96 77 84 77 86 96 85 96 98 98 94 54 35 67 32 15 14 16 17 16 16 18 24 33 46 55 69 71 72 48 44 37 35 34 17 16 16 18 18 21 23 25 27 29 32
93 93 84 87 88 99 100 87 99 89 70 43 28 58 51 80 49 30 26 23 26 20 16 18 26 27 45 66 55 65 54 50 34 26 30 32 35 16 16 17 18 23 26 28 30 32 34 36 39
85 99 98 81 98 100 99 62 84 94 42 22 21 21 30 25 24 24 20 19 23 29 26 16 17 17 47 62 45 32 42 52 37 40 37 18 16 18 19 22 25 28 29 31 33 37 42 47 47
96 81 98 88 84 89 94 63 58 47 40 40 35 29 18 18 17 22 25 21 21 39 36 37 33 21 25 27 55 54 61 37 23 17 18 20 21 23 24 27 29 29 30 33 36 43 48 52 51
75 90 97 96 78 82 84 91 49 29 18 28 26 25 37 29 15 19 23 28 24 27 21 19 22 23 30 60 55 44 34 23 19 20 22 23 25 25 29 29 30 31 33 34 37 44 54 56 54
63 89 98 96 99 87 77 95 98 58 12 16 22 24 23 28 18 15 20 24 25 25 20 19 21 41 54 83 41 20 25 21 23 23 25 25 24 24 28 28 28 28 27 27 28 30 36 43 52
87 99 99 94 96 85 81 65 62 56 13 21 32 25 26 30 20 16 16 19 21 22 23 20 48 71 76 42 26 36 24 23 23 26 24 21 20 23 23 25 26 26 27 26 27 29 29 37 45
78 78 81 90 82 81 67 72 48 22 11 16 72 33 25 32 31 25 31 29 16 20 20 22 70 64 52 32 46 28 23 24 24 24 22 20 21 22 23 24 26 27 29 31 34 38 50 87 76
81 71 93 96 70 67 67 55 39 25 33 69 66 60 40 22 25 23 26 20 14 14 31 45 43 43 36 29 23 24 25 24 22 21 21 21 22 24 26 27 29 30 31 34 40 43 54 99 100
78 90 78 75 84 75 80 46 88 45 57 74 67 40 41 20 30 37 26 26 26 31 26 45 32 28 27 33 22 24 19 20 21 21 22 24 26 28 29 31 33 33 38 56 54 42 45 56 72
74 68 62 65 54 44 86 68 81 93 64 54 53 55 34 14 15 14 26 17 24 18 37 32 17 19 17 20 19 22 20 20 19 20 26 30 29 31 36 61 76 48 47 91 100 79 61 92 99
54 44 40 39 30 62 77 57 73 82 78 52 32 25 17 15 15 16 16 23 30 29 43 27 25 18 19 20 35 20 16 32 28 23 24 22 35 65 76 84 88 57 75 73 100 80 65 71 75
89 62 68 70 58 59 82 66 51 69 54 32 55 18 17 17 16 16 18 28 33 20 26 19 22 20 22 33 47 27 41 45 20 30 56 75 74 71 99 61 60 58 62 98 100 95 71 79 86
60 67 94 85 67 64 38 49 36 29 64 88 71 28 16 15 16 17 19 19 21 21 20 20 19 18 33 31 37 47 78 79 73 79 87 94 78 76 59 72 63 58 60 97 96 74 78 92 96
81 57 45 48 53 31 27 38 60 54 71 72 66 66 20 17 18 20 22 22 22 21 20 18 18 18 29 38 79 96 92 99 90 83 90 85 64 64 61 58 59 70 81 77 78 88 86 90 92
95 51 45 52 41 31 22 35 44 60 53 60 55 54 30 19 22 23 22 23 22 20 19 18 21 33 60 90 76 96 100 100 99 70 82 75 74 50 57 76 82 72 76 99 100 95 96 100 100
Wind_Speed
29 28 28 30 30 32 33 26 28 24 25 21 26 25 27 27 29 30 29 33 36 36 33 36 37 35 27 28 30 31 33 37 34 29 28 26 20 19 21 17 13 10 10 12 12 13 14 15 13
28 26 27 28 28 29 21 23 19 19 18 22 34 33 19 34 35 31 30 34 38 38 39 38 39 37 38 34 34 32 35 36 36 36 26 19 21 22 21 16 13 11 14 14 14 15 16 16 15
27 26 25 26 25 14 9 15 18 21 21 21 26 25 28 27 27 28 26 30 37 36 40 41 39 40 39 38 35 35 37 36 37 36 33 19 21 25 22 17 13 14 14 15 16 17 19 20 19
28 27 26 24 12 8 18 19 19 19 17 21 25 27 29 31 29 29 37 42 47 44 43 47 42 44 40 38 37 38 37 34 39 35 25 18 23 25 22 16 16 16 16 18 18 18 19 21 22
29 27 26 20 8 14 16 19 16 20 20 26 22 24 28 27 28 29 25 33 37 36 42 49 41 42 39 39 41 40 35 39 40 29 16 17 21 22 19 19 18 16 18 20 21 20 22 21 22
28 28 26 14 14 16 16 16 17 19 20 21 23 25 29 30 22 33 33 32 32 35 35 42 43 26 35 40 45 42 35 35 18 14 12 16 16 16 19 19 18 17 20 23 22 24 23 22 23
25 27 19 20 16 15 16 17 21 19 19 20 21 26 26 29 28 26 29 26 28 28 22 45 44 37 26 36 47 42 33 9 7 5 6 9 16 19 17 15 16 20 21 22 25 27 26 27 26
24 24 24 24 24 18 24 17 13 17 19 25 23 22 26 25 30 34 29 18 36 33 42 48 38 48 48 46 42 33 16 11 9 8 9 13 11 13 15 18 22 22 22 25 26 29 26 16 21
26 22 12 18 27 29 9 12 13 16 22 25 25 26 27 22 22 19 18 21 25 33 37 39 34 29 27 29 12 10 17 16 10 5 5 8 13 16 20 22 19 19 22 25 27 26 26 25 22
27 19 18 21 29 22 10 11 15 17 16 19 19 25 27 28 24 14 22 20 32 40 26 32 31 26 16 12 16 20 16 14 12 11 13 15 15 15 16 17 16 20 24 22 21 24 29 30 31
26 19 22 24 29 24 6 6 11 20 23 20 22 22 28 24 19 21 13 17 20 38 37 20 17 16 22 20 15 12 11 10 8 7 10 14 12 14 19 21 12 16 19 25 24 23 26 26 29
19 26 27 32 23 16 8 10 13 16 15 25 21 19 14 18 8 10 19 14 12 17 18 23 23 23 19 16 13 11 7 6 7 8 10 12 17 17 16 16 16 17 21 23 20 20 24 24 25
21 21 32 32 20 7 11 16 17 16 21 20 13 17 20 13 5 5 11 8 9 13 22 19 16 16 12 11 8 5 5 5 5 9 8 14 15 16 18 22 23 24 21 17 20 22 25 27 30
18 23 20 14 14 13 14 16 20 15 11 11 14 15 21 12 7 1 7 13 8 9 11 13 12 11 9 5 3 3 5 5 6 10 16 16 19 20 20 17 20 19 17 20 24 28 29 31 33
25 16 16 7 5 8 12 12 5 3 1 4 10 8 9 9 9 5 8 12 10 11 11 10 11 10 8 4 1 3 5 8 12 16 15 17 18 19 19 17 17 19 23 27 30 30 31 32 34
20 16 12 10 3 11 8 6 1 5 7 11 5 2 6 6 9 5 4 6 8 8 6 5 6 4 1 2 5 7 11 13 15 17 17 17 17 16 15 17 20 22 26 28 29 31 33 35 36
17 11 6 6 2 2 1 5 6 5 8 10 6 4 7 6 8 5 5 5 3 5 2 2 3 4 1 5 10 12 15 15 14 15 15 15 14 17 18 21 23 26 29 31 34 36 37 39 39
15 22 20 15 4 8 8 7 7 8 4 4 4 3 3 5 9 9 6 5 3 3 4 7 8 7 7 10 13 14 14 15 14 11 12 16 17 20 23 26 29 33 36 38 40 40 40 41 42
15 13 11 8 6 2 6 1 2 5 6 4 4 4 5 4 5 6 2 4 5 5 7 10 12 12 13 11 13 14 15 12 13 15 17 20 24 27 30 34 37 39 41 43 44 44 44 44 45
15 18 14 10 5 3 1 2 6 5 3 5 3 1 3 4 4 5 3 1 4 8 11 14 16 14 10 11 13 10 10 14 18 21 26 29 32 34 36 39 41 43 46 47 47 49 50 50 49
15 11 15 13 7 1 5 11 9 6 7 3 2 3 3 4 5 2 1 1 4 6 11 16 17 16 11 13 13 12 17 20 26 28 32 35 38 40 42 44 46 47 49 50 51 52 52 52 53
19 16 19 14 13 11 11 14 6 11 12 7 4 6 7 5 6 8 7 8 7 8 12 16 14 17 13 14 15 19 21 25 30 33 37 39 43 44 45 48 50 51 51 52 52 52 52 53 56
8 10 11 19 15 11 12 15 13 13 14 16 9 7 4 4 6 9 10 9 11 12 12 12 11 11 14 16 19 24 27 31 34 37 40 43 45 47 49 50 51 52 53 54 54 55 53 56 60
12 15 13 12 12 13 13 12 7 15 5 5 5 1 7 6 6 7 6 7 11 14 12 10 9 13 16 19 23 27 31 34 38 41 43 45 48 49 50 52 53 54 54 53 54 56 56 56 59
12 13 13 14 14 13 17 16 11 8 5 1 3 10 9 6 3 2 3 3 6 9 10 11 15 18 22 25 28 31 34 38 42 45 47 49 51 52 53 53 55 58 59 59 61 62 62 63 65
16 15 14 15 14 7 22 19 13 11 6 4 5 7 5 1 1 1 4 6 6 10 15 16 19 23 27 31 33 35 40 42 46 48 51 55 54 51 53 49 58 61 61 57 66 67 65 65 67
16 16 15 16 16 13 15 25 19 12 10 9 4 4 3 6 6 4 8 10 11 13 19 22 25 28 32 35 36 42 43 44 49 50 50 49 53 55 50 60 60 60 59 60 68 69 68 67 69
16 14 16 15 16 15 14 21 16 13 12 7 8 7 9 9 8 10 11 14 16 19 23 28 32 36 38 39 41 41 40 41 43 46 49 50 54 55 59 59 61 62 59 60 67 70 68 70 74
23 19 18 18 18 15 15 17 17 16 16 14 12 14 11 11 12 13 15 17 20 24 29 33 37 42 43 44 39 38 43 43 48 49 50 52 55 58 59 59 60 61 62 64 67 67 71 74 77
29 17 16 17 18 21 18 16 19 23 23 21 20 17 14 14 16 19 22 23 26 29 33 39 42 42 40 40 46 47 49 50 52 54 53 52 57 59 59 60 62 63 64 65 69 72 74 82 85
Wind_Direction
232 230 234 234 232 231 233 241 241 240 234 233 228 238 250 235 243 253 268 273 282 278 274 275 271 269 275 276 281 280 281 276 278 277 281 275 254 241 228 226 230 244 264 271 280 293 302 301 304
227 228 230 231 231 237 245 237 246 233 221 221 224 235 252 233 240 258 269 277 281 274 278 274 269 270 270 275 278 279 280 276 268 280 276 257 243 233 227 228 238 253 265 279 291 299 308 313 311
225 223 226 231 229 238 223 223 229 217 209 229 241 235 243 245 248 266 259 274 281 277 274 276 274 268 273 273 273 273 274 273 268 274 269 250 235 228 229 230 245 258 271 283 291 303 308 308 308
217 216 220 226 217 198 196 207 213 213 229 234 234 243 246 254 259 262 262 267 275 276 275 272 272 271 271 268 262 267 271 277 265 264 251 249 231 224 228 232 248 262 273 282 292 299 302 305 309
211 210 216 221 176 196 208 218 218 234 234 227 244 252 255 260 269 263 272 266 269 270 270 258 245 255 263 260 248 258 249 273 264 254 243 236 232 221 226 238 256 270 281 290 298 303 303 302 303
206 208 212 180 206 190 197 209 230 238 252 255 249 250 259 255 270 258 261 268 271 270 272 255 217 245 255 257 256 253 246 251 249 253 250 227 226 224 232 243 258 276 290 293 295 297 304 304 307
204 212 202 185 209 199 213 228 242 255 251 260 257 253 259 250 258 263 268 267 243 261 240 206 216 242 251 251 243 222 231 189 193 193 195 201 216 230 243 264 283 281 285 292 294 296 300 309 314
200 209 203 189 213 214 210 243 249 252 252 266 256 262 255 254 266 274 269 243 264 248 211 226 232 249 232 225 215 211 190 182 159 139 195 214 234 245 269 272 273 281 289 293 299 306 311 319 311
203 208 197 214 221 220 242 265 272 285 292 276 281 256 252 261 286 260 243 237 221 188 200 210 216 213 201 204 206 160 127 127 150 178 199 233 247 252 253 268 287 299 296 303 309 313 312 301 303
206 206 165 208 232 233 271 304 299 288 293 278 281 255 266 276 276 300 247 225 221 232 251 238 213 214 197 172 136 123 130 148 176 203 223 241 252 270 280 283 291 302 305 315 304 298 295 298 292
208 201 202 225 233 226 282 312 284 276 277 268 279 265 262 269 261 261 228 227 234 241 221 203 182 187 117 116 136 152 166 186 212 233 255 260 278 289 301 296 300 326 315 299 291 290 308 304 302
216 207 216 227 228 245 251 287 281 268 290 280 273 258 244 241 220 233 217 233 204 182 178 109 111 114 128 143 156 166 182 202 225 242 268 301 302 305 313 288 287 308 306 302 306 306 304 307 307
198 206 218 231 236 267 244 279 282 286 285 280 275 246 245 231 190 240 240 108 107 74 105 118 128 132 137 150 142 154 202 239 259 264 295 288 284 308 301 282 289 306 299 299 300 305 309 309 310
198 199 203 220 240 258 272 278 298 283 290 261 255 254 217 184 128 168 60 82 92 93 94 108 117 128 139 163 162 203 227 256 281 284 283 291 289 298 297 297 290 294 303 303 305 307 309 308 306
186 177 205 219 221 270 277 306 305 314 315 176 211 176 129 125 123 115 104 125 129 123 127 138 143 141 147 159 173 286 284 305 288 297 295 292 296 302 303 306 306 309 306 304 304 303 302 303 305
186 191 191 229 300 274 265 319 306 173 110 82 54 65 76 91 109 102 113 90 109 119 139 146 120 99 154 177 326 309 300 286 293 295 295 297 302 297 302 299 299 298 296 296 302 305 307 309 311
201 201 218 236 207 240 285 111 125 95 119 111 105 67 81 100 107 117 110 109 119 123 143 90 54 29 342 300 299 300 290 290 299 292 294 293 290 292 289 289 292 296 300 305 307 309 311 311 310
208 211 219 235 154 68 37 91 100 134 136 134 120 97 115 142 158 153 142 145 137 78 314 318 340 346 318 302 293 285 298 309 303 296 290 288 291 295 298 303 306 308 309 307 307 309 310 310 309
217 238 183 147 116 49 99 172 355 148 146 139 131 134 148 160 154 156 142 32 355 349 324 326 325 323 315 300 290 297 304 305 298 292 289 301 307 310 312 311 312 312 309 309 310 310 308 306 305
215 219 173 163 131 350 168 208 271 264 206 136 125 165 123 179 184 148 134 24 334 322 321 320 316 312 308 304 306 297 295 300 305 310 313 314 311 312 314 315 313 310 310 309 309 308 305 303 304
200 166 172 175 178 79 300 258 251 210 232 188 222 263 251 208 247 251 248 24 312 313 309 317 314 315 314 314 305 304 315 316 313 314 311 312 313 315 315 312 311 311 309 309 308 307 304 304 307
155 154 165 182 191 192 230 270 271 197 224 219 231 219 236 258 279 286 291 299 318 313 307 316 309 310 311 303 301 304 309 311 309 311 311 310 311 312 312 310 309 309 309 307 306 305 305 304 303
160 167 177 181 194 219 238 246 256 241 219 287 278 288 284 275 274 293 302 309 303 306 306 305 304 294 301 303 303 304 308 308 308 307 306 308 309 310 308 307 307 305 304 306 307 305 300 295 299
169 162 186 202 225 240 235 239 252 255 242 40 62 352 313 302 304 301 299 291 288 288 291 285 287 292 296 299 300 301 302 304 304 303 306 307 305 304 303 303 302 303 304 303 307 307 302 302 304
154 191 207 217 231 227 235 245 274 233 260 128 235 267 279 305 314 17 305 264 268 277 282 292 295 296 298 300 298 299 301 302 302 303 304 302 301 301 303 306 307 307 308 301 303 310 305 304 301
190 208 224 225 234 223 234 235 243 238 219 249 218 261 278 322 9 11 283 272 276 289 291 296 297 300 298 296 297 302 302 300 304 305 303 304 308 307 307 306 299 304 308 303 299 304 300 300 300
205 207 225 246 237 237 250 244 252 221 238 248 248 238 254 280 278 279 281 294 296 300 301 299 298 297 297 300 300 301 302 299 306 305 302 300 305 306 304 303 303 302 302 298 301 298 298 299 299
237 228 232 245 262 231 246 246 254 255 248 250 236 262 266 267 277 284 294 298 304 303 302 301 300 300 300 298 295 295 290 296 301 298 297 297 301 301 300 300 301 300 296 292 294 295 297 298 300
243 242 241 249 254 248 251 253 250 251 254 247 241 248 267 276 283 295 296 299 300 298 298 298 296 296 296 295 294 293 300 296 300 297 294 294 300 299 299 300 298 297 299 297 299 300 300 302 301
240 232 235 248 252 255 247 233 256 252 253 255 251 246 252 272 284 284 286 290 293 294 294 297 296 298 298 294 297 299 302 299 297 300 298 300 299 301 300 299 299 301 298 298 301 302 303 306 304